#timestamp,LO_Frequency,Hit,StdDev 
1597780815.8,286047000.4,N
1597780835.6,286047000.5,N
1597780855.5,286047000.9,N
1597780875.3,286047000.7,N
1597780895.1,286047001.0,N
1597780915.9,286047000.7,N
1597780935.7,286046998.1,Y
1597780955.6,286046998.1,P
1597780975.4,286046999.3,N
1597780995.2,286046998.2,N
1597781015.1,286046998.6,N
1597781016.0,286046998.6,N
1597781035.8,286047000.8,N
1597781055.6,286047000.8,N
1597781075.5,286047000.8,N
1597781095.3,286047011.9,Y
1597781115.2,286046998.2,P
1597781135.9,286047001.2,N
1597781155.7,286047001.0,N
1597781175.6,286047000.8,N
1597781195.4,286047000.9,N
1597781215.2,286047000.6,N
1597781235.1,286047000.4,N
1597781236.0,286047000.4,N
1597781255.8,286046999.9,N
1597781275.7,286047002.8,Y
1597781295.5,286047000.5,P
1597781315.3,286046999.9,N
1597781335.2,286047000.8,P
1597781355.0,286046998.6,Y
1597781355.9,286046998.6,P
1597781375.8,286047000.6,N
1597781395.6,286047000.6,N
1597781415.4,286047000.3,N
1597781435.3,286047000.4,N
1597781455.1,286046998.6,N
1597781475.8,286047001.2,N
1597781495.7,286047000.7,N
1597781515.5,286046998.1,N
1597781535.4,286046998.2,N
1597781555.2,286047000.7,N
1597781575.0,286047001.1,N
1597781575.9,286047001.1,N
1597781595.8,286047001.2,N
1597781615.6,286047001.1,N
1597781635.4,286047000.4,N
1597781655.3,286047000.0,N
1597781675.1,286047002.7,N
1597781695.8,286047002.6,N
1597781715.7,286047002.4,N
1597781735.5,286047002.5,N
1597781755.4,286047001.8,N
1597781775.2,286047001.8,N
1597781795.0,286047000.1,N
1597781795.9,286047000.1,N
1597781815.8,286047002.8,N
1597781835.6,286047002.4,N
1597781855.5,286047002.3,N
1597781875.3,286047002.0,N
1597781895.1,286047002.6,N
1597781915.9,286047002.4,N
1597781935.7,286047002.7,N
1597781955.5,286047000.6,N
1597781975.4,286047000.4,N
1597781995.2,286047000.4,N
1597782015.1,286047000.4,N
1597782016.0,286047000.4,N
1597782035.8,286047000.3,N
1597782055.6,286047000.0,N
1597782075.5,286047000.0,N
1597782095.3,286047002.7,N
1597782115.1,286047002.4,N
1597782135.9,286047002.3,N
1597782155.7,286047002.8,N
1597782175.6,286047000.3,N
1597782195.4,286047000.4,N
1597782215.3,286047002.8,N
1597782235.1,286046999.9,N
1597782255.9,286047001.2,N
1597782275.7,286047000.8,N
1597782295.5,286047000.3,N
1597782315.4,286047001.9,N
1597782335.2,286047000.0,N
1597782355.0,286046999.9,N
1597782356.0,286046999.9,N
1597782375.8,286047000.4,N
1597782395.6,286047000.7,N
1597782415.5,286046998.1,N
1597782435.3,286046999.1,N
1597782455.1,286046998.7,N
1597782475.9,286046996.5,N
1597782495.7,286046997.4,N
1597782515.6,286046996.7,N
1597782535.4,286046999.1,N
1597782555.2,286046996.8,N
1597782575.1,286046997.8,N
1597782576.0,286046997.8,N
1597782595.8,286046999.1,N
1597782615.6,286046999.1,N
1597782635.5,286046997.5,N
1597782655.3,286046997.0,N
1597782675.2,286046997.6,N
1597782695.9,286046998.0,N
1597782715.7,286046994.9,N
1597782735.6,286046994.9,N
1597782755.4,286046995.0,N
1597782775.2,286046995.3,N
1597782795.1,286046995.7,N
1597782796.0,286046995.7,N
1597782815.8,286046995.5,N
1597782835.7,286046995.3,N
1597782855.5,286046995.8,N
1597782875.3,286046995.9,N
1597782895.2,286046996.2,N
1597782915.0,286046995.2,N
1597782915.9,286046995.2,N
1597782935.7,286046995.4,N
1597782955.6,286046995.4,Y
1597782975.4,286046998.7,P
1597782995.3,286047001.1,N
1597783015.1,286046998.9,N
1597783016.0,286046998.9,N
1597783035.8,286047001.1,N
1597783055.7,286046996.5,N
1597783075.5,286046998.8,N
1597783095.3,286046999.1,N
1597783115.2,286046999.0,N
1597783135.0,286046998.7,N
1597783135.9,286046998.7,N
1597783155.8,286046999.3,N
1597783175.6,286046996.6,N
1597783195.4,286046997.0,N
1597783215.3,286046997.2,N
1597783235.1,286046997.2,N
1597783255.8,286046997.1,N
1597783275.7,286046997.5,N
1597783295.5,286046996.7,N
1597783315.4,286046996.9,N
1597783335.2,286046999.0,N
1597783355.0,286046996.5,N
1597783356.0,286046996.5,N
1597783375.8,286046998.6,N
1597783395.6,286046998.4,N
1597783415.5,286046998.1,N
1597783435.3,286046998.4,N
1597783455.1,286047000.8,N
1597783475.9,286047000.7,N
1597783495.7,286047000.3,N
1597783515.6,286046999.8,N
1597783535.4,286047000.2,N
1597783555.2,286046999.8,N
1597783575.1,286047000.0,N
1597783576.0,286047000.0,N
1597783595.8,286047002.5,N
1597783615.7,286047002.3,N
1597783635.5,286046999.9,N
1597783655.3,286046999.8,N
1597783675.2,286046999.7,N
1597783695.0,286046999.8,N
1597783695.9,286046999.8,N
1597783715.7,286047002.7,N
1597783735.6,286047002.4,N
1597783755.4,286047000.2,N
1597783775.3,286047002.4,N
1597783795.1,286047002.8,N
1597783796.0,286047002.8,N
1597783815.8,286046999.9,N
1597783835.7,286047000.4,N
1597783855.5,286047000.3,N
1597783875.3,286047000.9,N
1597783895.2,286047000.7,N
1597783915.0,286047000.6,N
1597783915.9,286047000.6,N
1597783935.8,286047000.9,N
1597783955.6,286047000.4,N
1597783975.4,286047002.8,N
1597783995.3,286047002.8,N
1597784015.1,286047000.2,N
1597784035.8,286047002.6,N
1597784055.7,286047000.1,N
1597784075.5,286047001.9,N
1597784095.4,286047002.1,N
1597784115.2,286047002.3,N
1597784135.0,286047002.1,N
1597784135.9,286047002.1,N
1597784155.8,286047004.0,Y
1597784175.6,286047000.1,P
1597784195.4,286046999.7,N
1597784215.3,286047002.7,P
1597784235.1,286047000.2,N
1597784255.9,286046999.7,N
1597784275.7,286047000.1,N
1597784295.8,286046999.9,N
1597784315.7,286047000.5,N
1597784335.5,286047002.6,N
1597784355.3,286047002.0,N
1597784375.2,286046999.7,N
1597784395.9,286047002.8,N
